Weather History for KCRG - April, 2013

Change the Weather History Date:

Friday, April 19, 2013

  Actual Average Record
Temperature  
Mean Temperature 80 °F -  
Max Temperature 91 °F 77 °F 91 °F (2013)
Min Temperature 66 °F 56 °F 39 °F (2001)
Cooling Degree Days 14    
Growing Degree Days 30 (Base 50)    
Moisture  
Dew Point 68 °F    
Average Humidity 73    
Maximum Humidity 87    
Minimum Humidity 40    
Precipitation  
Precipitation 0.19 in - - ()
Sea Level Pressure  
Sea Level Pressure 29.97 in    
Wind  
Wind Speed 10 mph (SSW)    
Max Wind Speed 20 mph    
Max Gust Speed 29 mph    
Visibility 10 miles    
Events Rain    
Averages and records for this station are not official NWS values.
T = Trace of Precipitation, MM = Missing Value Source: NWS Daily Summary

Daily Weather History Graph

Daily Weather History Graph

Search for Another Location

Airport or City:

Trip Planner

Search our weather history database for the weather conditions in past years. The results will help you decide how hot, cold, wet, or windy it might be!

Date:

Astronomy

Apr. 19, 2013 Rise Set
Actual Time 6:54 AM EDT 7:56 PM EDT
Civil Twilight 6:29 AM EDT 8:21 PM EDT
Nautical Twilight 6:00 AM EDT 8:50 PM EDT
Astronomical Twilight 5:29 AM EDT 9:20 PM EDT
Moon 2:04 PM EDT (4/19) 2:42 AM EDT (4/19)
Length of Visible Light 13h 51m
Length of Day
13h 02m
First Quarter, 61% of the Moon is Illuminated
Apr 19
First Quarter
Apr 25
Full
May 2
Last Quarter
May 9
New
May 18
First Quarter

Hourly Weather History & Observations

Time (EDT) Temp. Heat Index Dew Point Humidity Pressure Visibility Wind Dir Wind Speed Gust Speed Precip Events Conditions
12:53 AM 73.9 °F - 69.1 °F 85% 30.02 in 10.0 mi SSE 6.9 mph - N/A   Clear
1:53 AM 73.9 °F - 70.0 °F 87% 30.00 in 10.0 mi South 8.1 mph - N/A   Clear
2:53 AM 73.9 °F - 69.1 °F 85% 29.98 in 10.0 mi SSE 9.2 mph - N/A   Clear
3:53 AM 75.0 °F - 70.0 °F 84% 29.98 in 10.0 mi South 9.2 mph - N/A   Mostly Cloudy
4:53 AM 75.0 °F - 69.1 °F 82% 29.97 in 10.0 mi South 13.8 mph 21.9 mph N/A   Overcast
5:53 AM 73.9 °F - 66.9 °F 79% 29.98 in 10.0 mi SSW 13.8 mph - N/A   Overcast
6:53 AM 73.0 °F - 66.9 °F 81% 29.99 in 10.0 mi SW 10.4 mph - 0.00 in Rain Light Rain
7:53 AM 73.9 °F - 66.0 °F 76% 30.01 in 10.0 mi SSW 5.8 mph - 0.00 in   Overcast
8:53 AM 75.0 °F - 66.9 °F 76% 30.02 in 10.0 mi South 8.1 mph - N/A   Overcast
9:53 AM 78.1 °F - 69.1 °F 74% 30.01 in 10.0 mi South 11.5 mph 19.6 mph N/A   Overcast
10:41 AM 82.4 °F 86.3 °F 69.8 °F 66% 30.00 in 10.0 mi South 11.5 mph 26.5 mph N/A   Mostly Cloudy
10:53 AM 82.9 °F 86.5 °F 69.1 °F 63% 30.01 in 10.0 mi South 18.4 mph 25.3 mph N/A   Mostly Cloudy
11:08 AM 82.4 °F 85.4 °F 68.0 °F 62% 30.01 in 10.0 mi SSW 19.6 mph 27.6 mph N/A   Mostly Cloudy
11:53 AM 84.9 °F 87.6 °F 66.9 °F 55% 30.00 in 10.0 mi South 18.4 mph 28.8 mph N/A   Scattered Clouds
12:53 PM 87.1 °F 89.9 °F 66.9 °F 51% 29.97 in 10.0 mi SW 15.0 mph - N/A   Mostly Cloudy
1:53 PM 88.0 °F 89.6 °F 64.9 °F 46% 29.95 in 10.0 mi SSW 13.8 mph 23.0 mph N/A   Partly Cloudy
2:53 PM 90.0 °F 90.6 °F 63.0 °F 40% 29.92 in 10.0 mi SSW 18.4 mph 27.6 mph N/A   Clear
3:53 PM 88.0 °F 88.7 °F 63.0 °F 43% 29.88 in 10.0 mi SW 18.4 mph 25.3 mph N/A   Mostly Cloudy
4:53 PM 75.0 °F - 69.1 °F 82% 29.90 in 10.0 mi SE 8.1 mph - 0.02 in Rain Light Rain
5:53 PM 78.1 °F - 71.1 °F 79% 29.89 in 10.0 mi South 4.6 mph - 0.00 in   Mostly Cloudy
6:53 PM 81.0 °F 84.4 °F 70.0 °F 69% 29.89 in 10.0 mi South 3.5 mph - N/A   Partly Cloudy
7:53 PM 77.0 °F - 72.0 °F 84% 29.92 in 10.0 mi SSE 6.9 mph - 0.03 in   Mostly Cloudy
8:53 PM 75.9 °F - 71.1 °F 85% 29.93 in 10.0 mi SSW 4.6 mph - N/A   Partly Cloudy
9:53 PM 79.0 °F - 69.1 °F 72% 29.96 in 10.0 mi SSW 6.9 mph - N/A   Overcast
10:53 PM 75.0 °F - 68.0 °F 79% 29.98 in 10.0 mi NNW 9.2 mph - N/A   Mostly Cloudy
11:02 PM 75.2 °F - 66.2 °F 73% 29.98 in 10.0 mi WNW 10.4 mph - N/A   Mostly Cloudy
11:31 PM 73.4 °F - 68.0 °F 83% 29.99 in 8.0 mi NNW 10.4 mph - 0.04 in Rain Light Rain
11:41 PM 69.8 °F - 64.4 °F 83% 30.01 in 5.0 mi NW 12.7 mph 26.5 mph 0.08 in Rain Rain
11:53 PM 66.9 °F - 63.0 °F 87% 30.01 in 3.0 mi NNW 17.3 mph 25.3 mph 0.14 in Rain Heavy Rain